This demonstration page uses our WeatherBlox Daily Observations layout. Learn more.

Left ArrowRight Arrow

39.92423, -83.80882

Hourly Observations for April 29, 2022

Temp ( °F °C ) Dew Point ( °F °C ) Humidity (%) Winds ( mph kmh ) Pressure ( in mb ) Visibility ( mi km ) Precip ( " mm )
12:10 am 00:10 Cloudy with Haze 48 9 36 2 62 62 ESE 6 9 30.21 1023 2 3 0.00 0.00
12:20 am 00:20 Cloudy with Haze 48 9 36 2 62 62 ESE 3 6 30.21 1023 6 10 0.00 0.00
12:56 am 00:56 Mostly Cloudy 47 8.3 36 2.2 66 66 ENE 7 11 30.20 1023 10 16 0.00 0.00
1:56 am 01:56 Cloudy 49 9.4 32 0 52 52 E 9 15 30.19 1023 10 16 0.00 0.00
2:56 am 02:56 Cloudy 48 8.9 32 0 54 54 E 13 20 30.18 1022 10 16 0.00 0.00
3:56 am 03:56 Cloudy 47 8.3 32 0 56 56 E 13 20 30.18 1022 10 16 0.00 0.00
4:56 am 04:56 Cloudy 46 7.8 31 -0.6 56 56 E 12 19 30.19 1023 10 16 0.00 0.00
5:56 am 05:56 Cloudy 45 7.2 31 -0.6 58 58 E 13 20 30.20 1023 10 16 0.00 0.00
6:56 am 06:56 Cloudy 45 7.2 31 -0.6 58 58 E 12 19 30.22 1023 10 16 0.00 0.00
7:56 am 07:56 Cloudy 45 7.2 31 -0.6 58 58 E 13 20 30.23 1024 10 16 0.00 0.00
8:56 am 08:56 Cloudy 46 7.8 30 -1.1 54 54 E 13 20 30.24 1024 10 16 0.00 0.00
9:56 am 09:56 Cloudy 48 8.9 31 -0.6 52 52 ESE 10 17 30.23 1024 10 16 0.00 0.00
10:56 am 10:56 Cloudy 51 10.6 31 -0.6 46 46 E 10 17 30.22 1024 10 16 0.00 0.00
11:56 am 11:56 Cloudy 54 12.2 32 0 43 43 E 14 22 30.20 1023 10 16 0.00 0.00
12:56 pm 12:56 Cloudy 58 14.4 32 0 38 38 ESE 8 13 30.19 1022 10 16 0.00 0.00
1:56 pm 13:56 Cloudy 59 15 33 0.6 38 38 ESE 13 20 30.17 1022 10 16 0.00 0.00
2:56 pm 14:56 Cloudy 61 16.1 34 1.1 36 36 ESE 12 19 30.14 1021 10 16 0.00 0.00
3:56 pm 15:56 Cloudy 63 17.2 35 1.7 35 35 ESE 14 22 30.12 1020 10 16 0.00 0.00
4:56 pm 16:56 Cloudy 64 17.8 35 1.7 34 34 ESE 15 24 30.10 1019 10 16 0.00 0.00
5:56 pm 17:56 Cloudy 65 18.3 34 1.1 32 32 ESE 15 24 30.09 1019 10 16 0.00 0.00
6:56 pm 18:56 Sunny 62 16.7 34 1.1 35 35 E 10 17 30.09 1019 10 16 0.00 0.00
7:56 pm 19:56 Sunny 58 14.4 37 2.8 46 46 E 9 15 30.07 1018 10 16 0.00 0.00
8:56 pm 20:56 Clear 54 12.2 37 2.8 53 53 E 7 11 30.09 1019 10 16 0.00 0.00
9:56 pm 21:56 Cloudy 56 13.3 36 2.2 47 47 E 9 15 30.10 1019 10 16 0.00 0.00
10:56 pm 22:56 Cloudy 57 13.9 34 1.1 42 42 E 12 19 30.09 1019 10 16 0.00 0.00
11:56 pm 23:56 Cloudy 57 13.9 32 0 39 39 E 12 19 30.08 1019 10 16 0.00 0.00

Powered by AerisWeather